STARLINK-2387, 47806

Orbit data source: Space-Track

STARLINK-2387, 47806 is a payload satellite owned by SpaceX/Seattle (US) in LEO that was launched on Thu, 11 Mar 2021 UTC via an FALCON 9 launch vehicle from the Air Force Eastern Test Range (AFETR). Payload-class satellites include a variety of spacecraft equipped with specific instruments for various scientific and technological missions. These include communications satellites like Starlink; space stations such as the ISS; scientific satellites like the Hubble; Earth observation satellites from companies like Planet Labs, Umbra, and HawkEye 360; GPS; miniature CubeSats for education and research; and military/defense satellites.

Loading next visibility...
Identifier
47806, 2021-018V
Orbit
LEO
Country
Flag of USUS
Related business
Manufacturer
SpaceX/Seattle
Mission
Operational Commercial Communications
Bus & Motor
STARLINK, Unknown motor
Mass
260 kg wet, ~248 kg dry
Launch date (UTC)
2021-03-11 (5 years ago)
Launch vehicle
FALCON 9
Launch site
Air Force Eastern Test Range (AFETR)
Object type
Payload
Rocket body
Debris
Shape & HBR
Box + 1 Pan, 10.1 m
Radar Cross Section
13.562 m², Large (>1 m²)

Expand to show TLE details & history
Last TLE update: 2 days ago

TLE from 2 days ago
0 STARLINK-2387
1 47806U 21018V   26171.24784284 -.00001280  00000-0 -29498-4 0  9992
2 47806  53.1623 125.8570 0001418  75.4820 284.6339 15.31686194292490
Epoch: 2026-06-20T05:56Z
TLE epoch observation values (Epoch: 2026-06-20T05:56:53.621Z)
Latitude
0.00001°
Longitude
128.16839°
Altitude
471.436 km
Speed
7.632 km/s
True Right ascension
08h 23m 25s
True Declination
0° 00' 00"
Sunlit
Object was in daylight at epoch
Visualization orbit readout
Latitude
Unknown
Longitude
Unknown
Altitude
Unknown
Speed
Unknown
Apparent Right ascension
Unknown
Apparent Declination
Unknown
Sunlit
N/A
Visualization observer readout
Local Sidereal Time
21:49:09
Azimuth
Unknown
Elevation
Unknown
Doppler factor
Unknown
Orbital elements
Apogee altitude
472.009 km
Perigee altitude
470.066 km
Semi-major axis
6,849.174 km
Eccentricity
0.00014
Inclination
53.1623°
RAAN
125.857°
Arg. of periapsis
75.482°
True anomaly
284.61818°
Mean anomaly
284.6339°
Eccentric anomaly
284.62604°
Mean motion
3.829 °/min
Orbital period
94.02 mins
BSTAR
-0.000029498
Loading maneuver chart data...
Computing Atmospheric mass density...

Documentation

Showing up to 5 results
|